This is the latest recevied weather packets stored in our database for station/object SQ9SMC-13. If no packets are shown the sender has not sent any weather packets the latest 10 day(s).
| Time | Temp. | Humidity | Pressure | Rain* | Wind** | Luminosity | Snow |
|---|---|---|---|---|---|---|---|
| 1777527005 | 2.22° C | 65% | 1032.3 hPa | 0 mm | - | 120 W/m² | - |
| 1777526704 | 1.67° C | 69% | 1032.3 hPa | 0 mm | - | 111 W/m² | - |
| 1777526405 | 1.67° C | 69% | 1032.5 hPa | 0 mm | - | 101 W/m² | - |
| 1777526103 | 1.67° C | 71% | 1032.3 hPa | 0 mm | - | 91 W/m² | - |
| 1777525805 | 1.67° C | 72% | 1032.5 hPa | 0 mm | - | 83 W/m² | - |
| 1777525507 | 1.11° C | 75% | 1032.6 hPa | 0 mm | - | 74 W/m² | - |
| 1777525203 | 0.56° C | 79% | 1032.5 hPa | 0 mm | - | 88 W/m² | - |
| 1777524903 | -0.56° C | 80% | 1032.3 hPa | 0 mm | - | 74 W/m² | - |
| 1777524604 | -1.11° C | 81% | 1032.4 hPa | 0 mm | - | 68 W/m² | - |
| 1777524303 | -1.11° C | 82% | 1032.4 hPa | 0 mm | - | 63 W/m² | - |
| 1777524004 | -2.22° C | 84% | 1032.4 hPa | 0 mm | - | 59 W/m² | - |
| 1777523702 | -2.78° C | 87% | 1032.4 hPa | 0 mm | - | 55 W/m² | - |
| 1777523405 | -3.33° C | 92% | 1032.4 hPa | 0 mm | - | 52 W/m² | - |
| 1777523103 | -3.89° C | 96% | 1032.1 hPa | 0 mm | - | 47 W/m² | - |
| 1777522803 | -4.44° C | 97% | 1032.1 hPa | 0 mm | - | 38 W/m² | - |
| 1777522505 | -5.56° C | 98% | 1032 hPa | 0 mm | - | 31 W/m² | - |
| 1777522203 | -6.11° C | 98% | 1032.1 hPa | 0 mm | - | 25 W/m² | - |
| 1777521905 | -6.11° C | 98% | 1032.3 hPa | 0 mm | - | 19 W/m² | - |
| 1777521605 | -6.67° C | 98% | 1032.2 hPa | 0 mm | - | 15 W/m² | - |
| 1777521302 | -6.67° C | 98% | 1032.1 hPa | 0 mm | - | 12 W/m² | - |
| 1777521003 | -6.67° C | 98% | 1032 hPa | 0 mm | - | 10 W/m² | - |
| 1777520702 | -6.67° C | 98% | 1032.1 hPa | 0 mm | - | 8 W/m² | - |
| 1777520403 | -6.67° C | 98% | 1032.1 hPa | 0 mm | - | 6 W/m² | - |
| 1777520105 | -7.22° C | 98% | 1032 hPa | 0 mm | - | 5 W/m² | - |
| 1777519804 | -6.67° C | 97% | 1031.9 hPa | 0 mm | - | 3 W/m² | - |
* Rain latest hour (hover to see other rain measurements)
** Current wind speed in m/s (hover to see current wind gust speed)